Location: Mason
(37.5237°N, 89.2543°W)
Time: 06:58:28
(UTC+00:00)

Cosmos 2058 Rocket - Pass Details

Date: 24 January 2021
Orbit: 610 x 639 km, 82.5° (Epoch: 08 March)

Event Time Altitude Azimuth Distance (km) Brightness Sun altitude
Rises 23:31:48 0° 356° (N) 2,945 6.4 -4.3°
Reaches altitude 10° 23:34:04 10° 1° (N) 2,034 5.5 -4.8°
Maximum altitude 23:38:32 60° 81° (E) 731 3.2 -5.6°
Drops below altitude 10° 23:42:59 10° 162° (SSE) 2,021 5.7 -6.4°
Sets 23:45:14 0° 166° (SSE) 2,924 6.6 -6.9°
